QPF
0.00 0.00 0.00 0.00 0.00 0.00 0.00 0.00 0.00 0.00 0.00 0.00 0.00 0.00 0.00 0.00 0.00 0.00 0.00 0.00 0.00 0.00 0.00 0.00 0.00 0.00 0.00 0.00 0.00 0.00 0.00 0.00 0.00 0.00 0.00 0.00 0.00 0.00 0.00 0.00 0.00 0.00 0.00 0.00
0.00 0.00 0.00 0.00 0.00 0.00 0.00 0.00 0.00 0.00 0.00 0.00 0.00 0.00 0.00 0.00 0.00 0.00 0.00 0.00 0.00 0.00 0.00 0.00 0.00 0.00 0.00 0.00 0.00 0.00 0.00 0.00 0.00 0.00 0.00 0.00 0.00 0.00 0.00 0.00 0.00 0.00 0.00 0.00
0.00 0.00 0.00 0.00 0.00 0.00 0.00 0.00 0.00 0.00 0.00 0.00 0.00 0.00 0.00 0.00 0.00 0.00 0.00 0.00 0.00 0.00 0.00 0.00 0.00 0.00 0.00 0.00 0.00 0.00 0.00 0.00 0.00 0.00 0.00 0.00 0.00 0.00 0.00 0.00 0.00 0.00 0.00 0.00
0.00 0.00 0.00 0.00 0.00 0.00 0.00 0.00 0.00 0.00 0.00 0.00 0.00 0.00 0.00 0.00 0.00 0.00 0.00 0.00 0.00 0.00 0.00 0.00 0.00 0.00 0.00 0.00 0.00 0.00 0.00 0.00 0.00 0.00 0.00 0.00 0.00 0.00 0.00 0.00 0.00 0.00 0.00 0.00
0.00 0.00 0.00 0.00 0.00 0.00 0.00 0.00 0.00 0.00 0.00 0.00 0.00 0.00 0.00 0.00 0.00 0.00 0.00 0.00 0.00 0.00 0.00 0.00 0.00 0.00 0.00 0.00 0.00 0.00 0.00 0.00 0.00 0.00 0.00 0.00 0.00 0.00 0.00 0.00 0.00 0.00 0.00 0.00
0.00 0.00 0.00 0.00 0.00 0.00 0.00 0.00 0.00 0.00 0.00 0.00 0.00 0.00 0.00 0.00 0.00 0.00 0.00 0.00 0.00 0.00 0.00 0.00 0.00 0.00 0.00 0.00 0.00 0.00 0.00 0.00 0.00 0.00 0.00 0.00 0.00 0.00 0.00 0.00 0.00 0.00 0.00 0.00
0.00 0.00 0.00 0.00 0.00 0.00 0.00 0.00 0.00 0.00 0.00 0.00 0.00 0.00 0.00 0.00 0.00 0.00 0.00 0.00 0.00 0.00 0.00 0.00 0.00 0.00 0.00 0.00 0.00 0.00 0.00 0.00 0.00 0.00 0.00 0.00 0.00 0.00 0.00 0.00 0.00 0.00 0.00 0.00
0.00 0.00 0.00 0.00 0.00 0.00 0.00 0.00 0.00 0.00 0.00 0.00 0.00 0.00 0.00 0.00 0.00 0.00 0.00 0.00 0.00 0.00 0.00 0.00 0.00 0.00 0.00 0.00 0.00 0.00 0.00 0.00 0.00 0.00 0.00 0.00 0.00 0.00 0.00 0.00 0.00 0.00 0.00 0.00
0.00 0.00 0.00 0.00 0.00 0.00 0.00 0.00 0.00 0.00 0.00 0.00 0.00 0.00 0.00 0.00 0.00 0.00 0.00 0.00 0.00 0.00 0.00 0.00 0.00 0.00 0.00 0.00 0.00 0.00 0.00 0.00 0.00 0.00 0.00 0.00 0.00 0.00 0.00 0.00 0.00 0.00 0.00 0.00
0.00 0.00 0.00 0.00 0.00 0.00 0.00 0.00 0.00 0.00 0.00 0.00 0.00 0.00 0.00 0.00 0.00 0.00 0.00 0.00 0.00 0.00 0.00 0.00 0.00 0.00 0.00 0.00 0.00 0.00 0.00 0.00 0.00 0.00 0.00 0.00 0.00 0.00 0.00 0.00 0.00 0.00 0.00 0.00
0.00 0.00 0.00 0.00 0.00 0.00 0.00 0.00 0.00 0.00 0.00 0.00 0.00 0.00 0.00 0.00 0.00 0.00 0.00 0.00 0.00 0.00 0.00 0.00 0.00 0.00 0.00 0.00 0.00 0.00 0.00 0.00 0.00 0.00 0.00 0.00 0.00 0.00 0.00 0.00 0.00 0.00 0.00 0.00
0.00 0.00 0.00 0.00 0.00 0.00 0.00 0.00 0.00 0.00 0.00 0.00 0.00 0.00 0.00 0.00 0.00 0.00 0.00 0.00 0.00 0.00 0.00 0.00 0.00 0.00 0.00 0.00 0.00 0.00 0.00 0.00 0.00 0.00 0.00 0.00 0.00 0.00 0.00 0.00 0.00 0.00 0.00 0.00
0.00 0.00 0.00 0.00 0.00 0.00 0.00 0.00 0.00 0.00 0.00 0.00 0.00 0.00 0.00 0.00 0.00 0.00 0.00 0.00 0.00 0.00 0.00 0.00 0.00 0.00 0.00 0.00 0.00 0.00 0.00 0.00 0.00 0.00 0.00 0.00 0.00 0.00 0.00 0.00 0.00 0.00 0.00 0.00
0.00 0.00 0.00 0.00 0.00 0.00 0.00 0.00 0.00 0.00 0.00 0.00 0.00 0.00 0.00 0.00 0.00 0.00 0.00 0.00 0.00 0.00 0.00 0.00 0.00 0.00 0.00 0.00 0.00 0.00 0.00 0.00 0.00 0.00 0.00 0.00 0.00 0.00 0.00 0.00 0.00 0.00 0.00 0.00
0.00 0.00 0.00 0.00 0.00 0.00 0.00 0.00 0.00 0.00 0.00 0.00 0.00 0.00 0.00 0.00 0.00 0.00 0.00 0.00 0.00 0.00 0.00 0.00 0.00 0.00 0.00 0.00 0.00 0.00 0.00 0.00 0.00 0.00 0.00 0.00 0.00 0.00 0.00 0.00 0.00 0.00 0.00 0.00
0.00 0.00 0.00 0.00 0.00 0.00 0.00 0.00 0.00 0.00 0.00 0.00 0.00 0.00 0.00 0.00 0.00 0.00 0.00 0.00 0.00 0.00 0.00 0.00 0.00 0.00 0.00 0.00 0.00 0.00 0.00 0.00 0.00 0.00 0.00 0.00 0.00 0.00 0.00 0.00 0.00 0.00 0.00 0.00
0.00 0.00 0.00 0.00 0.00 0.00 0.00 0.00 0.00 0.00 0.00 0.00 0.00 0.00 0.00 0.00 0.00 0.00 0.00 0.00 0.00 0.00 0.00 0.00 0.00 0.00 0.00 0.00 0.00 0.00 0.00 0.00 0.00 0.00 0.00 0.00 0.00 0.00 0.00 0.00 0.00 0.00 0.00 0.00
0.00 0.00 0.00 0.00 0.00 0.00 0.00 0.00 0.00 0.00 0.00 0.00 0.00 0.00 0.00 0.00 0.00 0.00 0.00 0.00 0.00 0.00 0.00 0.00 0.00 0.00 0.00 0.00 0.00 0.00 0.00 0.00 0.00 0.00 0.00 0.00 0.00 0.00 0.00 0.00 0.00 0.00 0.00 0.00
0.00 0.00 0.00 0.00 0.00 0.00 0.00 0.00 0.00 0.00 0.00 0.00 0.00 0.00 0.00 0.00 0.00 0.00 0.00 0.00 0.00 0.00 0.00 0.00 0.00 0.00 0.00 0.00 0.00 0.00 0.00 0.00 0.00 0.00 0.00 0.00 0.00 0.00 0.00 0.00 0.00 0.00 0.00 0.00
0.00 0.00 0.00 0.00 0.00 0.00 0.00 0.00 0.00 0.00 0.00 0.00 0.00 0.00 0.00 0.00 0.00 0.00 0.00 0.00 0.00 0.00 0.00 0.00 0.00 0.00 0.00 0.00 0.00 0.00 0.00 0.00 0.00 0.00 0.00 0.00 0.00 0.00 0.00 0.00 0.00 0.00 0.00 0.00
0.00 0.00 0.00 0.00 0.00 0.00 0.00 0.00 0.00 0.00 0.00 0.00 0.00 0.00 0.00 0.00 0.00 0.00 0.00 0.00 0.00 0.00 0.00 0.00 0.00 0.00 0.00 0.00 0.00 0.00 0.00 0.00 0.00 0.00 0.00 0.00 0.00 0.00 0.00 0.00 0.00 0.00 0.00 0.00
0.00 0.00 0.00 0.00 0.00 0.00 0.00 0.00 0.00 0.00 0.00 0.00 0.00 0.00 0.00 0.00 0.00 0.00 0.00 0.00 0.00 0.00 0.00 0.00 0.00 0.00 0.00 0.00 0.00 0.00 0.00 0.00 0.00 0.00 0.00 0.00 0.00 0.00 0.00 0.00 0.00 0.00 0.00 0.00
0.00 0.00 0.00 0.00 0.00 0.00 0.00 0.00 0.00 0.00 0.00 0.00 0.00 0.00 0.00 0.00 0.00 0.00 0.00 0.00 0.00 0.00 0.00 0.00 0.00 0.00 0.00 0.00 0.00 0.00 0.00 0.00 0.00 0.00 0.00 0.00 0.00 0.00 0.00 0.00 0.00 0.00 0.00 0.00
0.01 0.00 0.00 0.00 0.00 0.00 0.00 0.00 0.00 0.00 0.00 0.00 0.00 0.00 0.00 0.00 0.00 0.00 0.00 0.00 0.00 0.00 0.00 0.00 0.00 0.00 0.00 0.00 0.00 0.00 0.00 0.00 0.00 0.00 0.00 0.00 0.00 0.00 0.00 0.00 0.00 0.00 0.00 0.00
0.01 0.01 0.01 0.01 0.00 0.00 0.00 0.00 0.00 0.00 0.00 0.00 0.00 0.00 0.00 0.00 0.00 0.00 0.00 0.00 0.00 0.00 0.00 0.00 0.00 0.00 0.00 0.00 0.00 0.00 0.00 0.00 0.00 0.00 0.00 0.00 0.00 0.00 0.00 0.00 0.00 0.00 0.00 0.00
0.01 0.01 0.01 0.01 0.00 0.00 0.00 0.00 0.00 0.00 0.00 0.00 0.00 0.00 0.00 0.00 0.00 0.00 0.00 0.00 0.00 0.00 0.00 0.00 0.00 0.00 0.00 0.00 0.00 0.00 0.00 0.00 0.00 0.00 0.00 0.00 0.00 0.00 0.00 0.00 0.00 0.00 0.00 0.00
0.01 0.01 0.01 0.01 0.00 0.00 0.00 0.00 0.00 0.00 0.00 0.00 0.00 0.00 0.00 0.00 0.00 0.00 0.00 0.00 0.00 0.00 0.00 0.00 0.00 0.00 0.00 0.00 0.00 0.00 0.00 0.00 0.00 0.00 0.00 0.00 0.00 0.00 0.00 0.00 0.00 0.00 0.00 0.00
MSLP
1013.87 1014.24 1014.55 1014.80 1014.96 1015.01 1014.94 1014.73 1014.39 1013.95 1013.43 1012.88 1012.35 1011.88 1011.52 1011.27 1011.15 1011.13 1011.20 1011.32 1011.47 1011.61 1011.73 1011.84 1011.92 1012.00 1012.07 1012.16 1012.25 1012.34 1012.44 1012.52 1012.59 1012.63 1012.65 1012.66 1012.65 1012.65 1012.65 1012.65 1012.65 1012.63 1012.57 1012.48
1013.84 1014.08 1014.22 1014.26 1014.21 1014.06 1013.83 1013.52 1013.16 1012.76 1012.36 1011.97 1011.63 1011.35 1011.14 1011.00 1010.92 1010.89 1010.90 1010.93 1010.97 1011.02 1011.08 1011.15 1011.23 1011.34 1011.47 1011.61 1011.77 1011.91 1012.04 1012.14 1012.21 1012.24 1012.25 1012.25 1012.24 1012.25 1012.27 1012.29 1012.31 1012.30 1012.25 1012.14
1013.77 1013.86 1013.82 1013.66 1013.41 1013.08 1012.71 1012.32 1011.95 1011.61 1011.32 1011.08 1010.92 1010.80 1010.73 1010.69 1010.66 1010.63 1010.59 1010.55 1010.50 1010.47 1010.47 1010.50 1010.59 1010.72 1010.89 1011.09 1011.29 1011.47 1011.62 1011.73 1011.79 1011.81 1011.81 1011.80 1011.79 1011.80 1011.82 1011.85 1011.88 1011.88 1011.82 1011.72
1013.66 1013.57 1013.34 1012.99 1012.55 1012.07 1011.58 1011.13 1010.75 1010.46 1010.27 1010.18 1010.16 1010.20 1010.26 1010.31 1010.34 1010.33 1010.27 1010.19 1010.09 1010.02 1009.98 1010.00 1010.08 1010.23 1010.43 1010.66 1010.88 1011.09 1011.24 1011.34 1011.39 1011.39 1011.36 1011.33 1011.30 1011.30 1011.31 1011.34 1011.36 1011.35 1011.30 1011.19
1013.46 1013.18 1012.76 1012.23 1011.64 1011.02 1010.44 1009.94 1009.56 1009.32 1009.21 1009.23 1009.35 1009.51 1009.69 1009.85 1009.95 1009.98 1009.96 1009.88 1009.79 1009.70 1009.67 1009.69 1009.78 1009.95 1010.16 1010.40 1010.62 1010.82 1010.96 1011.03 1011.04 1011.00 1010.93 1010.86 1010.80 1010.76 1010.75 1010.75 1010.75 1010.73 1010.67 1010.56
1013.10 1012.65 1012.06 1011.38 1010.65 1009.94 1009.29 1008.76 1008.39 1008.19 1008.15 1008.26 1008.48 1008.76 1009.05 1009.31 1009.50 1009.62 1009.66 1009.64 1009.59 1009.55 1009.54 1009.60 1009.71 1009.89 1010.10 1010.33 1010.54 1010.70 1010.79 1010.82 1010.77 1010.68 1010.56 1010.43 1010.32 1010.23 1010.16 1010.12 1010.08 1010.03 1009.96 1009.84
1012.53 1011.91 1011.19 1010.40 1009.59 1008.82 1008.14 1007.61 1007.25 1007.09 1007.11 1007.30 1007.61 1007.98 1008.38 1008.74 1009.04 1009.26 1009.40 1009.47 1009.51 1009.55 1009.60 1009.70 1009.84 1010.03 1010.24 1010.44 1010.60 1010.72 1010.75 1010.71 1010.61 1010.45 1010.25 1010.06 1009.88 1009.72 1009.59 1009.48 1009.39 1009.30 1009.19 1009.07
1011.69 1010.97 1010.16 1009.31 1008.47 1007.69 1007.02 1006.51 1006.20 1006.08 1006.16 1006.41 1006.79 1007.24 1007.72 1008.19 1008.59 1008.93 1009.18 1009.37 1009.52 1009.65 1009.79 1009.94 1010.12 1010.31 1010.50 1010.67 1010.79 1010.84 1010.81 1010.71 1010.53 1010.30 1010.04 1009.77 1009.52 1009.28 1009.07 1008.89 1008.72 1008.57 1008.43 1008.29
1010.60 1009.81 1008.98 1008.13 1007.31 1006.57 1005.96 1005.51 1005.26 1005.20 1005.34 1005.64 1006.08 1006.60 1007.16 1007.70 1008.21 1008.65 1009.02 1009.33 1009.59 1009.82 1010.04 1010.25 1010.45 1010.65 1010.83 1010.96 1011.02 1011.02 1010.93 1010.77 1010.53 1010.25 1009.93 1009.60 1009.27 1008.95 1008.66 1008.39 1008.14 1007.92 1007.72 1007.55
1009.29 1008.51 1007.70 1006.90 1006.16 1005.51 1004.99 1004.64 1004.46 1004.48 1004.68 1005.03 1005.52 1006.09 1006.70 1007.31 1007.90 1008.44 1008.91 1009.33 1009.69 1010.01 1010.29 1010.55 1010.78 1010.98 1011.13 1011.23 1011.26 1011.21 1011.08 1010.87 1010.60 1010.28 1009.92 1009.55 1009.16 1008.78 1008.41 1008.05 1007.72 1007.41 1007.14 1006.92
1007.89 1007.14 1006.40 1005.69 1005.06 1004.53 1004.13 1003.89 1003.81 1003.91 1004.17 1004.58 1005.10 1005.71 1006.36 1007.03 1007.67 1008.28 1008.83 1009.33 1009.77 1010.16 1010.50 1010.80 1011.04 1011.24 1011.38 1011.45 1011.45 1011.38 1011.23 1011.01 1010.73 1010.40 1010.03 1009.64 1009.22 1008.79 1008.36 1007.93 1007.51 1007.12 1006.77 1006.49
1006.50 1005.81 1005.15 1004.55 1004.04 1003.64 1003.37 1003.24 1003.27 1003.45 1003.78 1004.24 1004.80 1005.43 1006.12 1006.81 1007.50 1008.16 1008.77 1009.33 1009.82 1010.26 1010.64 1010.96 1011.21 1011.41 1011.54 1011.60 1011.59 1011.52 1011.37 1011.17 1010.92 1010.61 1010.26 1009.87 1009.45 1009.00 1008.53 1008.04 1007.56 1007.10 1006.68 1006.32
1005.26 1004.62 1004.04 1003.53 1003.13 1002.84 1002.69 1002.67 1002.79 1003.05 1003.44 1003.94 1004.54 1005.20 1005.91 1006.63 1007.35 1008.04 1008.70 1009.29 1009.83 1010.31 1010.71 1011.05 1011.31 1011.51 1011.64 1011.70 1011.69 1011.63 1011.52 1011.36 1011.14 1010.89 1010.58 1010.24 1009.84 1009.39 1008.91 1008.40 1007.87 1007.35 1006.87 1006.46
1004.25 1003.64 1003.11 1002.67 1002.34 1002.14 1002.07 1002.13 1002.33 1002.66 1003.10 1003.65 1004.28 1004.97 1005.70 1006.45 1007.20 1007.92 1008.61 1009.24 1009.81 1010.31 1010.74 1011.09 1011.36 1011.57 1011.70 1011.77 1011.78 1011.75 1011.68 1011.56 1011.41 1011.22 1010.98 1010.69 1010.34 1009.93 1009.47 1008.96 1008.42 1007.88 1007.36 1006.90
1003.53 1002.91 1002.39 1001.97 1001.67 1001.52 1001.49 1001.61 1001.86 1002.24 1002.72 1003.31 1003.97 1004.69 1005.46 1006.24 1007.02 1007.78 1008.50 1009.17 1009.78 1010.30 1010.75 1011.12 1011.41 1011.61 1011.76 1011.84 1011.88 1011.88 1011.84 1011.78 1011.69 1011.57 1011.40 1011.18 1010.89 1010.54 1010.13 1009.65 1009.13 1008.60 1008.07 1007.59
1003.09 1002.44 1001.89 1001.45 1001.15 1000.99 1000.98 1001.12 1001.39 1001.79 1002.31 1002.92 1003.62 1004.38 1005.18 1006.00 1006.83 1007.63 1008.39 1009.10 1009.74 1010.30 1010.77 1011.16 1011.46 1011.68 1011.84 1011.93 1011.98 1012.01 1012.01 1011.99 1011.95 1011.89 1011.78 1011.63 1011.42 1011.14 1010.79 1010.38 1009.92 1009.42 1008.92 1008.46
1002.91 1002.21 1001.60 1001.12 1000.78 1000.59 1000.56 1000.68 1000.96 1001.37 1001.90 1002.54 1003.27 1004.06 1004.90 1005.77 1006.63 1007.48 1008.28 1009.04 1009.72 1010.31 1010.81 1011.21 1011.53 1011.76 1011.92 1012.03 1012.09 1012.12 1012.14 1012.15 1012.14 1012.12 1012.08 1011.99 1011.85 1011.65 1011.37 1011.04 1010.65 1010.23 1009.79 1009.37
1002.94 1002.19 1001.52 1000.98 1000.59 1000.35 1000.28 1000.38 1000.63 1001.04 1001.57 1002.22 1002.97 1003.79 1004.66 1005.56 1006.46 1007.35 1008.20 1008.99 1009.70 1010.32 1010.85 1011.27 1011.60 1011.84 1012.00 1012.10 1012.16 1012.20 1012.21 1012.23 1012.24 1012.24 1012.23 1012.19 1012.11 1011.98 1011.79 1011.54 1011.24 1010.91 1010.55 1010.19
1003.14 1002.34 1001.64 1001.04 1000.60 1000.31 1000.20 1000.26 1000.48 1000.87 1001.39 1002.04 1002.79 1003.61 1004.50 1005.42 1006.34 1007.26 1008.13 1008.94 1009.68 1010.32 1010.87 1011.30 1011.64 1011.88 1012.04 1012.13 1012.17 1012.19 1012.20 1012.20 1012.20 1012.21 1012.22 1012.21 1012.17 1012.10 1011.99 1011.82 1011.61 1011.36 1011.09 1010.80
1003.46 1002.65 1001.92 1001.29 1000.81 1000.49 1000.34 1000.36 1000.56 1000.91 1001.40 1002.03 1002.76 1003.57 1004.45 1005.36 1006.29 1007.20 1008.08 1008.90 1009.64 1010.28 1010.83 1011.27 1011.60 1011.84 1011.99 1012.06 1012.09 1012.09 1012.07 1012.06 1012.05 1012.04 1012.05 1012.06 1012.05 1012.02 1011.97 1011.87 1011.73 1011.56 1011.36 1011.14
1003.85 1003.06 1002.33 1001.71 1001.22 1000.89 1000.71 1000.70 1000.86 1001.17 1001.62 1002.21 1002.90 1003.68 1004.52 1005.40 1006.29 1007.18 1008.03 1008.83 1009.55 1010.19 1010.72 1011.15 1011.47 1011.70 1011.84 1011.90 1011.92 1011.89 1011.86 1011.82 1011.79 1011.78 1011.78 1011.78 1011.79 1011.79 1011.77 1011.72 1011.64 1011.52 1011.36 1011.18
1004.28 1003.53 1002.85 1002.26 1001.78 1001.45 1001.26 1001.23 1001.35 1001.62 1002.03 1002.56 1003.19 1003.91 1004.68 1005.50 1006.34 1007.17 1007.97 1008.73 1009.41 1010.02 1010.53 1010.93 1011.24 1011.46 1011.59 1011.65 1011.65 1011.63 1011.58 1011.53 1011.49 1011.46 1011.45 1011.45 1011.46 1011.47 1011.46 1011.44 1011.38 1011.29 1011.16 1010.99
1004.70 1004.02 1003.41 1002.86 1002.43 1002.11 1001.93 1001.89 1001.98 1002.21 1002.56 1003.02 1003.58 1004.22 1004.92 1005.66 1006.41 1007.17 1007.90 1008.59 1009.23 1009.78 1010.26 1010.64 1010.93 1011.14 1011.27 1011.33 1011.34 1011.32 1011.27 1011.23 1011.18 1011.16 1011.14 1011.14 1011.14 1011.15 1011.14 1011.11 1011.05 1010.96 1010.82 1010.64
1005.05 1004.46 1003.92 1003.45 1003.07 1002.79 1002.62 1002.57 1002.65 1002.83 1003.13 1003.53 1004.01 1004.57 1005.18 1005.83 1006.50 1007.17 1007.82 1008.44 1009.01 1009.51 1009.95 1010.30 1010.58 1010.78 1010.91 1010.98 1011.01 1011.00 1010.98 1010.95 1010.93 1010.91 1010.90 1010.89 1010.89 1010.88 1010.85 1010.80 1010.72 1010.60 1010.44 1010.23
1005.28 1004.79 1004.34 1003.95 1003.63 1003.39 1003.25 1003.21 1003.27 1003.43 1003.68 1004.01 1004.43 1004.91 1005.44 1006.00 1006.58 1007.17 1007.74 1008.29 1008.79 1009.24 1009.63 1009.95 1010.21 1010.41 1010.55 1010.64 1010.69 1010.72 1010.73 1010.74 1010.74 1010.74 1010.74 1010.74 1010.73 1010.70 1010.65 1010.57 1010.46 1010.30 1010.09 1009.84
1005.32 1004.94 1004.58 1004.28 1004.02 1003.84 1003.74 1003.71 1003.77 1003.91 1004.13 1004.43 1004.79 1005.21 1005.67 1006.16 1006.66 1007.17 1007.67 1008.15 1008.59 1008.99 1009.33 1009.63 1009.87 1010.07 1010.22 1010.33 1010.42 1010.48 1010.53 1010.58 1010.61 1010.64 1010.66 1010.67 1010.65 1010.61 1010.54 1010.42 1010.26 1010.06 1009.80 1009.50
1005.16 1004.87 1004.62 1004.40 1004.22 1004.10 1004.04 1004.04 1004.11 1004.25 1004.46 1004.73 1005.06 1005.43 1005.84 1006.28 1006.73 1007.18 1007.62 1008.04 1008.43 1008.78 1009.08 1009.35 1009.58 1009.77 1009.93 1010.06 1010.18 1010.28 1010.38 1010.46 1010.54 1010.60 1010.64 1010.65 1010.63 1010.57 1010.47 1010.31 1010.11 1009.86 1009.56 1009.22
Thickness
5710 5717 5717 5717 5720 5718 5710 5702 5697 5709 5718 5732 5738 5740 5743 5745 5744 5743 5742 5740 5738 5734 5731 5729 5726 5723 5720 5716 5712 5708 5702 5697 5693 5690 5686 5681 5677 5674 5670 5666 5663 5660 5657 5654
5712 5721 5719 5717 5722 5721 5719 5717 5714 5718 5724 5742 5747 5745 5744 5745 5744 5743 5743 5743 5741 5737 5734 5730 5727 5724 5720 5716 5712 5708 5702 5698 5694 5690 5685 5681 5678 5674 5670 5666 5663 5660 5657 5654
5693 5708 5713 5706 5723 5724 5724 5729 5726 5720 5730 5743 5741 5742 5743 5745 5746 5745 5745 5745 5742 5739 5736 5733 5729 5726 5721 5718 5713 5708 5703 5699 5695 5690 5686 5682 5679 5674 5670 5667 5664 5660 5657 5654
5687 5698 5689 5718 5743 5743 5737 5740 5741 5743 5745 5745 5746 5748 5751 5751 5749 5747 5747 5746 5744 5741 5738 5735 5732 5728 5724 5718 5713 5708 5703 5699 5695 5691 5686 5683 5678 5674 5671 5668 5664 5661 5658 5656
5680 5683 5695 5723 5745 5745 5736 5736 5750 5748 5749 5749 5750 5746 5745 5753 5753 5750 5749 5747 5745 5742 5739 5735 5731 5727 5722 5716 5711 5706 5702 5699 5696 5692 5687 5683 5678 5675 5672 5668 5665 5662 5660 5657
5680 5684 5686 5721 5751 5760 5749 5735 5756 5754 5751 5747 5742 5727 5733 5751 5752 5751 5749 5746 5744 5741 5737 5733 5730 5725 5719 5713 5708 5704 5702 5700 5697 5693 5688 5683 5680 5677 5674 5670 5667 5664 5661 5659
5680 5680 5697 5734 5752 5753 5723 5731 5760 5758 5755 5749 5744 5743 5747 5750 5749 5748 5746 5744 5741 5737 5732 5729 5726 5721 5714 5709 5705 5704 5702 5699 5696 5692 5688 5684 5680 5677 5674 5670 5667 5664 5661 5660
5676 5677 5696 5744 5747 5739 5742 5758 5760 5758 5757 5754 5750 5749 5747 5746 5744 5742 5740 5738 5735 5730 5725 5723 5721 5716 5710 5705 5704 5703 5699 5696 5692 5689 5686 5684 5678 5675 5672 5668 5664 5662 5660 5658
5702 5711 5737 5747 5750 5758 5758 5757 5759 5757 5756 5754 5748 5745 5743 5740 5738 5736 5734 5732 5728 5724 5719 5715 5713 5711 5705 5702 5701 5698 5694 5690 5687 5685 5681 5679 5675 5672 5669 5666 5662 5660 5658 5656
5706 5721 5736 5746 5752 5758 5760 5760 5760 5759 5756 5753 5747 5743 5739 5735 5732 5729 5727 5725 5721 5717 5711 5707 5705 5703 5700 5698 5696 5693 5688 5684 5682 5679 5676 5674 5671 5669 5665 5663 5660 5659 5657 5656
5705 5719 5731 5741 5747 5752 5756 5757 5756 5755 5753 5750 5745 5739 5735 5730 5727 5724 5721 5718 5714 5710 5704 5699 5697 5694 5693 5691 5689 5685 5681 5678 5675 5673 5670 5668 5666 5664 5662 5661 5659 5657 5656 5655
5700 5718 5718 5729 5743 5747 5747 5748 5750 5747 5745 5744 5743 5737 5731 5726 5722 5718 5714 5710 5706 5701 5696 5691 5689 5686 5685 5683 5681 5677 5673 5669 5667 5664 5662 5660 5658 5658 5658 5657 5657 5656 5654 5653
5714 5724 5724 5732 5739 5743 5743 5745 5745 5744 5741 5737 5736 5733 5727 5720 5715 5711 5707 5703 5698 5692 5687 5683 5680 5677 5675 5674 5672 5668 5664 5661 5658 5655 5654 5652 5651 5649 5648 5649 5650 5650 5648 5647
5716 5717 5717 5725 5730 5737 5739 5741 5739 5737 5735 5733 5728 5724 5719 5712 5707 5703 5699 5694 5689 5684 5679 5675 5671 5668 5666 5664 5662 5658 5655 5652 5649 5645 5643 5642 5640 5639 5638 5637 5637 5637 5638 5638
5710 5711 5713 5721 5725 5728 5731 5730 5726 5724 5722 5720 5718 5715 5711 5705 5699 5694 5689 5685 5680 5674 5669 5665 5661 5657 5656 5654 5651 5648 5645 5641 5638 5635 5633 5631 5630 5629 5628 5627 5626 5625 5625 5626
5698 5702 5704 5707 5711 5716 5717 5718 5717 5715 5714 5711 5708 5705 5701 5696 5689 5683 5678 5675 5669 5662 5658 5655 5650 5647 5646 5643 5640 5636 5633 5634 5629 5625 5622 5620 5618 5616 5615 5613 5613 5612 5612 5611
5677 5682 5687 5691 5698 5703 5708 5712 5713 5711 5706 5703 5699 5695 5689 5682 5676 5669 5664 5661 5657 5651 5647 5643 5639 5637 5635 5632 5628 5624 5621 5619 5619 5613 5610 5607 5605 5603 5601 5600 5599 5598 5597 5598
5668 5675 5681 5685 5690 5693 5697 5699 5701 5699 5697 5694 5688 5683 5677 5672 5665 5657 5651 5646 5642 5636 5633 5631 5628 5625 5622 5619 5616 5612 5609 5606 5603 5600 5597 5595 5592 5590 5588 5587 5585 5584 5583 5584
5653 5662 5669 5676 5682 5685 5688 5689 5689 5688 5686 5682 5677 5671 5666 5659 5652 5645 5639 5634 5629 5623 5619 5618 5618 5612 5609 5607 5604 5600 5597 5594 5590 5587 5585 5584 5580 5578 5576 5575 5574 5572 5572 5571
5637 5647 5654 5661 5667 5671 5674 5677 5676 5674 5672 5669 5663 5656 5649 5643 5638 5631 5625 5619 5615 5611 5608 5605 5602 5599 5596 5594 5592 5587 5584 5581 5578 5575 5573 5570 5568 5566 5564 5564 5563 5561 5560 5559
5615 5625 5634 5641 5647 5653 5657 5660 5660 5658 5655 5653 5648 5642 5635 5628 5623 5618 5611 5603 5599 5598 5596 5594 5589 5585 5583 5581 5579 5574 5571 5568 5566 5563 5560 5558 5556 5555 5553 5552 5551 5550 5548 5547
5592 5601 5611 5619 5625 5630 5635 5638 5639 5639 5636 5633 5629 5624 5618 5611 5606 5600 5597 5593 5587 5586 5582 5578 5575 5574 5571 5569 5565 5562 5559 5556 5554 5551 5549 5547 5545 5543 5542 5540 5539 5538 5536 5534
5571 5579 5588 5596 5602 5606 5611 5614 5616 5617 5616 5614 5610 5606 5602 5596 5592 5587 5579 5575 5574 5573 5568 5565 5563 5563 5561 5555 5551 5549 5546 5544 5542 5540 5538 5536 5535 5533 5531 5529 5528 5526 5524 5522
5553 5561 5569 5575 5580 5584 5585 5588 5591 5593 5593 5592 5590 5587 5583 5577 5571 5570 5567 5565 5562 5558 5554 5552 5552 5550 5548 5541 5539 5536 5534 5532 5530 5529 5527 5526 5524 5522 5520 5518 5516 5514 5512 5510
5536 5543 5551 5556 5559 5561 5563 5566 5567 5568 5568 5567 5566 5566 5565 5563 5558 5553 5551 5549 5547 5544 5540 5540 5540 5538 5533 5529 5527 5524 5522 5521 5519 5518 5516 5514 5512 5510 5508 5506 5504 5502 5499 5496
5522 5528 5534 5540 5543 5544 5546 5547 5547 5547 5548 5547 5546 5546 5545 5544 5542 5539 5536 5534 5532 5530 5527 5525 5524 5523 5520 5518 5516 5514 5512 5511 5509 5507 5505 5503 5501 5499 5496 5494 5492 5489 5486 5483
5509 5515 5519 5523 5527 5529 5531 5532 5532 5531 5533 5532 5530 5530 5530 5528 5527 5524 5522 5520 5518 5516 5514 5512 5511 5510 5508 5507 5505 5504 5502 5500 5498 5496 5494 5491 5489 5487 5484 5482 5478 5475 5472 5469